Moline, IL

6:32 AM CDT on July 26, 2017 (GMT -0500)
Quad-City International

Weather History for KMLI - February, 2014

Change the Weather History Date:

Tuesday, February 4, 2014

  Actual Average Record
Temperature  
Mean Temperature 11 °F 24 °F  
Max Temperature 19 °F 33 °F 63 °F (1890)
Min Temperature 2 °F 15 °F -24 °F (1996)
Degree Days  
Heating Degree Days 54 41  
Month to date heating degree days 228 166  
Since 1 July heating degree days 4495 3900  
Cooling Degree Days 0 0  
Month to date cooling degree days 0 0  
Year to date cooling degree days 0 0  
Moisture  
Dew Point 8 °F    
Average Humidity 68    
Maximum Humidity 84    
Minimum Humidity 51    
Precipitation  
Precipitation 0.20 in 0.05 in 1.62 in (1927)
Month to date precipitation 0.56 0.18  
Year to date precipitation 1.73 1.67  
Snow  
Snow 3.90 in 0.30 in - ()
Month to date snowfall 7.8 1.2  
Since 1 July snowfall 40.3 21.1  
Snow Depth 3.00 in    
Sea Level Pressure  
Sea Level Pressure 30.30 in    
Wind  
Wind Speed 7 mph (NE)    
Max Wind Speed 14 mph    
Max Gust Speed 20 mph    
Visibility 5 miles    
Events Snow    
T = Trace of Precipitation, MM = Missing Value Source: NWS Daily Summary

Daily Weather History Graph

Daily Weather History Graph

Search for Another Location

Airport or City:

Trip Planner

Search our weather history database for the weather conditions in past years. The results will help you decide how hot, cold, wet, or windy it might be!

Date:

Astronomy

Feb. 04, 2014 Rise Set
Actual Time 7:10 AM CST 5:22 PM CST
Civil Twilight 6:41 AM CST 5:51 PM CST
Nautical Twilight 6:08 AM CST 6:24 PM CST
Astronomical Twilight 5:36 AM CST 6:56 PM CST
Moon 9:44 AM CST (2/4) 11:21 PM CST (2/4)
Length of Visible Light 11h 09m
Length of Day
10h 11m
Waxing Crescent, 29% of the Moon is Illuminated
Feb 4
Waxing Crescent
Feb 6
First Quarter
Feb 14
Full
Feb 22
Last Quarter
Mar 1
New

Hourly Weather History & Observations

Time (CST) Temp. Windchill Dew Point Humidity Pressure Visibility Wind Dir Wind Speed Gust Speed Precip Events Conditions
12:52 AM 1.9 °F - -4.0 °F 76% 30.42 in 10.0 mi Calm Calm - N/A   Clear
1:52 AM 5.0 °F -4.1 °F -0.9 °F 76% 30.40 in 9.0 mi East 4.6 mph - N/A   Mostly Cloudy
2:52 AM 7.0 °F -1.7 °F -0.0 °F 73% 30.41 in 9.0 mi East 4.6 mph - N/A   Overcast
3:52 AM 9.0 °F - -0.0 °F 67% 30.41 in 10.0 mi Calm Calm - N/A   Overcast
4:52 AM 8.1 °F -2.0 °F -0.9 °F 67% 30.40 in 10.0 mi East 5.8 mph - N/A   Clear
5:52 AM 9.0 °F -2.2 °F -0.0 °F 67% 30.43 in 10.0 mi East 6.9 mph - N/A   Overcast
6:52 AM 9.0 °F 0.6 °F -0.0 °F 67% 30.42 in 10.0 mi ENE 4.6 mph - N/A   Overcast
7:52 AM 10.0 °F 1.8 °F 1.0 °F 67% 30.43 in 9.0 mi East 4.6 mph - N/A   Overcast
8:52 AM 12.0 °F 2.7 °F 3.0 °F 67% 30.43 in 7.0 mi East 5.8 mph - N/A   Overcast
9:52 AM 14.0 °F 6.5 °F 3.9 °F 64% 30.41 in 8.0 mi East 4.6 mph - N/A   Overcast
10:52 AM 16.0 °F 5.3 °F 3.0 °F 57% 30.40 in 10.0 mi ENE 8.1 mph - N/A   Overcast
11:52 AM 17.1 °F 5.8 °F 3.9 °F 56% 30.36 in 10.0 mi ENE 9.2 mph - N/A   Overcast
12:52 PM 19.0 °F 8.2 °F 5.0 °F 54% 30.32 in 10.0 mi NE 9.2 mph - N/A   Overcast
1:52 PM 19.0 °F 12.3 °F 7.0 °F 59% 30.34 in 9.0 mi ENE 4.6 mph - N/A   Overcast
2:36 PM 19.4 °F 9.5 °F 8.6 °F 63% 30.27 in 2.5 mi ENE 8.1 mph - 0.00 in Snow Light Snow
2:43 PM 19.4 °F 10.4 °F 10.4 °F 68% 30.26 in 1.0 mi NE 6.9 mph - 0.00 in Snow Light Snow
2:52 PM 18.0 °F 6.9 °F 10.9 °F 74% 30.27 in 0.8 mi NE 9.2 mph - 0.01 in Snow Light Snow
3:52 PM 18.0 °F 7.7 °F 12.0 °F 78% 30.28 in 1.0 mi NE 8.1 mph - 0.01 in Snow Light Snow
4:29 PM 17.6 °F 5.7 °F 14.0 °F 86% 30.20 in 0.8 mi ENE 10.4 mph - 0.01 in Snow Light Snow
4:52 PM 18.0 °F 6.1 °F 14.0 °F 84% 30.24 in 0.8 mi NE 10.4 mph - 0.02 in Snow Light Snow
5:35 PM 17.6 °F 8.2 °F 12.2 °F 79% 30.20 in 1.5 mi NNE 6.9 mph - 0.00 in Snow Light Snow
5:38 PM 17.6 °F 7.3 °F 12.2 °F 79% 30.20 in 1.0 mi NNE 8.1 mph - 0.00 in Snow Light Snow
5:45 PM 17.6 °F 5.7 °F 12.2 °F 79% 30.20 in 1.8 mi NE 10.4 mph - 0.00 in Snow Light Snow
5:52 PM 18.0 °F 6.1 °F 12.9 °F 81% 30.24 in 1.0 mi NNE 10.4 mph - 0.00 in Snow Light Snow
6:52 PM 17.1 °F 7.6 °F 12.9 °F 84% 30.23 in 1.0 mi NNE 6.9 mph - 0.03 in Snow Light Snow
7:52 PM 17.1 °F 5.8 °F 12.9 °F 84% 30.21 in 1.0 mi NNE 9.2 mph - 0.02 in Snow Light Snow
8:52 PM 17.1 °F 4.3 °F 12.9 °F 84% 30.19 in 0.8 mi NNE 11.5 mph 19.6 mph 0.02 in Snow Light Snow
9:52 PM 17.1 °F 5.0 °F 12.9 °F 84% 30.19 in 0.8 mi NNE 10.4 mph - 0.02 in Snow Light Snow
10:35 PM 17.6 °F 6.4 °F 12.2 °F 79% 30.15 in 0.8 mi NNE 9.2 mph 17.3 mph 0.01 in Snow Light Snow
10:52 PM 17.1 °F 6.6 °F 12.9 °F 84% 30.19 in 0.8 mi North 8.1 mph - 0.02 in Snow Light Snow
10:59 PM 17.6 °F 6.4 °F 12.2 °F 79% 30.15 in 1.0 mi North 9.2 mph - 0.00 in Snow Light Snow
11:52 PM 17.1 °F 8.7 °F 12.9 °F 84% 30.18 in 1.2 mi North 5.8 mph - 0.02 in Snow Light Snow